Regional Weather Roundup
Issued by NWS State College, PA

Home | Current Version | Previous Version | Text Only | Print | Product List | Glossary On
Versions: 1 2 3 4 5 6 7 8 9 10 11 12 13 14 15 16 17 18 19 20 21 22 23 24 25 26 27 28 29 30 31 32 33 34 35 36 37 38 39 40 41 42 43 44 45 46 47 48 49 50
000
ASUS41 KCTP 232110
RWRCTP

REGIONAL WEATHER ROUNDUP
NATIONAL WEATHER SERVICE STATE COLLEGE PA
500 PM EDT WED MAY 23 2018

Note: "fair" indicates few or no clouds below 12,000 feet with no
significant weather and/or obstructions to visibility.

* = STATION THAT DOES NOT REPORT PRECIPITATION /E.G. RAIN...SNOW...ETC/
    THUNDER OR FOG.

PAZ002>004-007>009-013>016-020>023-029>032-232200-
WESTERN PENNSYLVANIA

CITY           SKY/WX    TMP DP  RH WIND       PRES   REMARKS
ERIE           FAIR      69  55  60 W13       30.15S
MEADVILLE      FAIR      71  52  50 W8        30.15S
FRANKLIN*      FAIR      72  54  53 W12       30.15S
NEW CASTLE     FAIR      74  53  48 N7        30.16R
BEAVER COUNTY  SUNNY     73  54  49 N7        30.15S
BUTLER*        FAIR      72  54  53 CALM      30.14S
PITTSBURGH INT FAIR      73  53  49 NW5       30.14S
PITTSBURGH     PTSUNNY   72  56  57 MISG      30.13S
INDIANA*       MOSUNNY   72  55  56 NE5G14    30.16S
LATROBE        MOSUNNY   72  55  56 NW12      30.14S
WASHINGTON CO* FAIR      71  57  61 N7        30.18R
$$

PAZ004>006-010>012-017>019-024>028-033>037-041-042-045-046-049>053-232200-
CENTRAL PENNSYLVANIA

CITY           SKY/WX    TMP DP  RH WIND       PRES   REMARKS
BRADFORD       FAIR      74  45  35 N8G18     30.12S
DUBOIS         FAIR      75  47  36 N10       30.11S
CLEARFIELD     FAIR      75  50  41 W10       30.10S
JOHNSTOWN      FAIR      69  54  58 NW12      30.14S
ALTOONA        FAIR      73  55  53 N8        30.11S
STATE COLLEGE  MOSUNNY   75  50  41 N7        30.08S
WILLIAMSPORT   FAIR      81  49  32 NW8       30.01S
SELINSGROVE    FAIR      76  57  51 N9        30.04S
FT INDIANTOWN  MOSUNNY   77  53  42 W7G16     30.03S
CAPITAL CITY   FAIR      79  52  38 NW13      30.03S
HARRISBURG     FAIR      78  54  43 NW9G21    30.02S
YORK           FAIR      77  58  51 NW7       30.04S
$$

PAZ038>040-043-044-047-048-054-055-060>062-067>071-232200-
EASTERN PENNSYLVANIA

CITY           SKY/WX    TMP DP  RH WIND       PRES   REMARKS
SCRANTON       FAIR      77  50  38 NW9       30.01F
MOUNT POCONO   FAIR      72  52  49 NW15      30.04R
ALLENTOWN      FAIR      79  53  40 N12       29.99R
QUAKERTOWN*    PTCLDY    79  57  47 NW9       30.00S
READING        FAIR      78  56  46 NW9       30.00S
LANCASTER      FAIR      78  57  48 N9G21     30.02S
COATESVILLE    FAIR      75  57  53 N12G17    30.03S
POTTSTOWN      FAIR      77  53  43 NW10      30.01S
BLUE BELL      FAIR      77  55  47 N7        29.99F
DOYLESTOWN     FAIR      80  55  42 NW9       29.98S
WILLOW GROVE   NOT AVBL
NORTH PHILA    FAIR      82  54  37 N15       29.98S
PHILADELPHIA   FAIR      79  53  40 NW15      29.97S
$$




USA.gov is the U.S. government's official web portal to all federal, state and local government web resources and services.